Погода в Усть-Таловке

Россия / Алтайский край     51°29′16″N   82°17′15″E
темп.,
°C
ветер,
м/с
пор.,
м/с
влажн.,
%
обл.,
%
осадки,
мм/ч
давл.,
гПа
погр.,
м
14 июня, пн
пн1401:00+11юв228329 0.1 101810
04:00+11юз1181100 0.0 101712
07:00+13зюз2286100 0.0 1017116
10:00+14зюз2386100 0.1 1018438
13:00+15ссз128877 0.5 1018405
16:00+19св566638 1.4 10171375
19:00+18св57680 1.6 10171035
22:00+13св33890 0.1 101830
15 июня, вт
вт1501:00+11св35930 0.1 101874
04:00+9св39952 0.0 1018172
07:00+10ссв311880 0.0 1019288
10:00+16св710683 0.0 1018757
13:00+19св810545 0.0 10181250
16:00+21св79526 0.0 10171286
19:00+20св586113 0.0 1017986
22:00+14св488223 0.0 1017120
16 июня, ср
ср1601:00+13всв33755 0.0 101637
04:00+12св33760 0.0 101640
07:00+13всв25756 0.0 1016144
10:00+19св46605 0.0 1016442
13:00+23ссв56545 0.0 10151174
16:00+24св56510 0.0 10141422
19:00+24всв35610 0.0 1013910
22:00+17вюв33800 0.0 101342
17 июня, чт
чт1701:00+16вюв22730 0.0 101312
04:00+14вюв11730 0.0 101210
07:00+17всв00724 0.0 101220
10:00+23св11570 0.0 1011351
13:00+27с12452 0.0 10101375
16:00+28юв12390 0.0 10091995
19:00+26юв45570 0.0 1008226
22:00+20ююв33648 0.0 100824
18 июня, пт
пт1801:00+20ю34556 0.0 100752
04:00+20ююз365492 0.0 1006107
07:00+18ююз34715 0.0 100698
10:00+24ююз225759 0.0 1006392
13:00+27зюз3350100 0.0 10051232
16:00+29ююв1242100 0.0 10041970
19:00+21з367788 1.4 1004194
22:00+18юв3382100 1.5 100332